Volver al catálogo

STARLINK-5853

ActivoComunicacionesVLEO
NORAD 56881·PAYLOAD·🇺🇸 United States

Lanzado Jun 12, 2023 desde Cape Canaveral Space Force Station

Loading…

Próximos Pases (próximas 24 horas)

TLE

ActualizadoSource: CelesTrak SupGP

Época: Sep 15, 2026, 02:51 UTC

1 56881C 23083F   26258.11923611  .00014881  00000+0  53894-3 0  2582
2 56881  43.0002  95.7973 0001640 261.8819 201.5184 15.27572734    10

Sigue STARLINK-5853 en tiempo real con AllMySat

Download on the App Store